| time (UTC) | temp C | wind direction | speed KPH | gust KPH | rain 1hr cm | rain 24hr cm | rain mn cm | humidity % | barometer mb |
| 20260503072203 | 9 | 212 | 4.8 | 12.9 | 0.00 | 0.00 | 0.00 | 60 | 1009.1 |
| 20260503071703 | 9 | 202 | 4.8 | 12.9 | 0.00 | 0.00 | 0.00 | 60 | 1009.2 |
| 20260503071203 | 9 | 204 | 4.8 | 12.9 | 0.00 | 0.00 | 0.00 | 60 | 1009.2 |
| 20260503070703 | 9 | 205 | 8.0 | 12.9 | 0.00 | 0.00 | 0.00 | 61 | 1009.3 |
| 20260503060203 | 8 | 186 | 6.4 | 9.7 | 0.00 | 0.00 | 0.00 | 61 | 1009.9 |
| 20260503054703 | 9 | 182 | 6.4 | 12.9 | 0.00 | 0.00 | 0.00 | 60 | 1010.1 |
| 20260503053703 | 9 | 193 | 4.8 | 9.7 | 0.00 | 0.00 | 0.00 | 60 | 1010.1 |
| 20260503052702 | 10 | 193 | 4.8 | 14.5 | 0.00 | 0.00 | 0.00 | 59 | 1010.2 |
| 20260503052203 | 10 | 182 | 8.0 | 14.5 | 0.00 | 0.00 | 0.00 | 59 | 1010.2 |
| 20260503051703 | 10 | 190 | 8.0 | 14.5 | 0.00 | 0.00 | 0.00 | 59 | 1010.2 |
| 20260503051203 | 10 | 193 | 8.0 | 14.5 | 0.00 | 0.00 | 0.00 | 58 | 1010.3 |
| 20260503050703 | 10 | 174 | 8.0 | 14.5 | 0.00 | 0.00 | 0.00 | 58 | 1010.2 |
| 20260503050203 | 10 | 184 | 8.0 | 12.9 | 0.00 | 0.00 | 0.00 | 58 | 1010.4 |
| 20260503045703 | 10 | 173 | 6.4 | 14.5 | 0.00 | 0.00 | 0.00 | 59 | 1010.5 |
| 20260503045203 | 10 | 181 | 6.4 | 14.5 | 0.00 | 0.00 | 0.00 | 59 | 1010.6 |
| 20260503044704 | 10 | 180 | 8.0 | 14.5 | 0.00 | 0.00 | 0.00 | 59 | 1010.5 |
| 20260503044203 | 10 | 177 | 6.4 | 14.5 | 0.00 | 0.00 | 0.00 | 59 | 1010.5 |
| 20260503043202 | 10 | 186 | 6.4 | 16.1 | 0.00 | 0.00 | 0.00 | 58 | 1010.7 |
| 20260503042703 | 10 | 173 | 8.0 | 14.5 | 0.00 | 0.00 | 0.00 | 57 | 1010.7 |
| 20260503041203 | 10 | 182 | 9.7 | 14.5 | 0.00 | 0.00 | 0.00 | 56 | 1011.0 |
| 20260503040203 | 10 | 198 | 4.8 | 11.3 | 0.00 | 0.00 | 0.00 | 54 | 1010.9 |
| 20260503035703 | 10 | 184 | 8.0 | 11.3 | 0.00 | 0.00 | 0.00 | 54 | 1011.0 |
| 20260503034704 | 10 | 191 | 4.8 | 12.9 | 0.00 | 0.00 | 0.00 | 53 | 1011.0 |
| 20260503034203 | 10 | 186 | 6.4 | 12.9 | 0.00 | 0.00 | 0.00 | 53 | 1011.2 |
| 20260503033703 | 10 | 159 | 6.4 | 12.9 | 0.00 | 0.00 | 0.00 | 53 | 1011.2 |
| 20260503033203 | 10 | 191 | 8.0 | 9.7 | 0.00 | 0.00 | 0.00 | 54 | 1011.3 |
| 20260503032703 | 10 | 201 | 4.8 | 9.7 | 0.00 | 0.00 | 0.00 | 53 | 1011.3 |
| 20260503032203 | 10 | 193 | 8.0 | 9.7 | 0.00 | 0.00 | 0.00 | 54 | 1011.4 |
| 20260503031703 | 9 | 187 | 4.8 | 9.7 | 0.00 | 0.00 | 0.00 | 55 | 1011.4 |
| 20260503031203 | 9 | 184 | 6.4 | 11.3 | 0.00 | 0.00 | 0.00 | 55 | 1011.5 |
| 20260503030703 | 9 | 188 | 4.8 | 11.3 | 0.00 | 0.00 | 0.00 | 56 | 1011.7 |
| 20260503025703 | 9 | 189 | 4.8 | 9.7 | 0.00 | 0.00 | 0.00 | 57 | 1011.8 |
| 20260503024202 | 9 | 199 | 4.8 | 8.0 | 0.00 | 0.00 | 0.00 | 56 | 1011.9 |
| 20260503023205 | 10 | 203 | 4.8 | 8.0 | 0.00 | 0.00 | 0.00 | 55 | 1011.8 |
| 20260503022702 | 10 | 203 | 4.8 | 12.9 | 0.00 | 0.00 | 0.00 | 55 | 1011.9 |
| 20260503022203 | 10 | 198 | 6.4 | 12.9 | 0.00 | 0.00 | 0.00 | 53 | 1011.9 |
| 20260503021203 | 10 | 210 | 4.8 | 4.8 | 0.00 | 0.00 | 0.00 | 51 | 1012.0 |
| 20260503020703 | 10 | 230 | 3.2 | 4.8 | 0.00 | 0.00 | 0.00 | 50 | 1012.0 |
| 20260503020203 | 10 | 230 | 3.2 | 8.0 | 0.00 | 0.00 | 0.00 | 49 | 1012.1 |
| 20260503015703 | 11 | 241 | 4.8 | 9.7 | 0.00 | 0.00 | 0.00 | 50 | 1012.1 |
| 20260503015203 | 11 | 230 | 3.2 | 9.7 | 0.00 | 0.00 | 0.00 | 48 | 1012.1 |
| 20260503014703 | 11 | 246 | 4.8 | 8.0 | 0.00 | 0.00 | 0.00 | 47 | 1012.1 |
| 20260503013703 | 12 | 220 | 4.8 | 9.7 | 0.00 | 0.00 | 0.00 | 45 | 1012.1 |
| 20260503013203 | 12 | 215 | 4.8 | 9.7 | 0.00 | 0.00 | 0.00 | 44 | 1012.0 |
| 20260503012703 | 12 | 232 | 3.2 | 9.7 | 0.00 | 0.00 | 0.00 | 42 | 1012.0 |
| 20260503012204 | 12 | 248 | 4.8 | 9.7 | 0.00 | 0.00 | 0.00 | 40 | 1012.0 |
| 20260503011703 | 13 | 249 | 4.8 | 11.3 | 0.00 | 0.00 | 0.00 | 38 | 1012.0 |
| 20260503011203 | 13 | 241 | 4.8 | 12.9 | 0.00 | 0.00 | 0.00 | 37 | 1012.0 |
| 20260503010703 | 13 | 254 | 6.4 | 12.9 | 0.00 | 0.00 | 0.00 | 37 | 1012.1 |
| 20260503010204 | 13 | 260 | 8.0 | 14.5 | 0.00 | 0.00 | 0.00 | 36 | 1012.0 |
| 20260503004703 | 13 | 254 | 6.4 | 19.3 | 0.00 | 0.00 | 0.00 | 35 | 1012.1 |
| 20260503004203 | 14 | 270 | 8.0 | 19.3 | 0.00 | 0.00 | 0.00 | 35 | 1012.1 |
| 20260503003703 | 14 | 273 | 9.7 | 19.3 | 0.00 | 0.00 | 0.00 | 33 | 1012.1 |
| 20260503003203 | 14 | 270 | 9.7 | 20.9 | 0.00 | 0.00 | 0.00 | 33 | 1012.2 |
| 20260503002703 | 14 | 267 | 9.7 | 20.9 | 0.00 | 0.00 | 0.00 | 33 | 1012.2 |
| 20260503002202 | 14 | 265 | 9.7 | 22.5 | 0.00 | 0.00 | 0.00 | 33 | 1012.2 |
| 20260503001704 | 15 | 267 | 11.3 | 22.5 | 0.00 | 0.00 | 0.00 | 32 | 1012.2 |
| 20260503001203 | 15 | 266 | 12.9 | 20.9 | 0.00 | 0.00 | 0.00 | 31 | 1012.2 |
| 20260503000702 | 15 | 275 | 12.9 | 22.5 | 0.00 | 0.00 | 0.00 | 31 | 1012.3 |
| 20260503000204 | 15 | 274 | 9.7 | 27.4 | 0.00 | 0.00 | 0.00 | 32 | 1012.3 |
| 20260502235203 | 15 | 284 | 14.5 | 24.1 | 0.00 | 0.00 | 0.00 | 31 | 1012.2 |
| 20260502233703 | 16 | 282 | 14.5 | 29.0 | 0.00 | 0.00 | 0.00 | 30 | 1012.2 |
| 20260502233203 | 16 | 290 | 6.4 | 20.9 | 0.00 | 0.00 | 0.00 | 31 | 1012.2 |
| 20260502232703 | 16 | 289 | 12.9 | 24.1 | 0.00 | 0.00 | 0.00 | 31 | 1012.3 |
| 20260502232203 | 16 | 271 | 12.9 | 32.2 | 0.00 | 0.00 | 0.00 | 31 | 1012.3 |
| 20260502231703 | 15 | 294 | 14.5 | 32.2 | 0.00 | 0.00 | 0.00 | 31 | 1012.4 |
| 20260502231203 | 16 | 259 | 12.9 | 25.7 | 0.00 | 0.00 | 0.00 | 30 | 1012.4 |
| 20260502230202 | 16 | 261 | 12.9 | 22.5 | 0.00 | 0.00 | 0.00 | 30 | 1012.6 |
| 20260502225703 | 16 | 279 | 14.5 | 22.5 | 0.00 | 0.00 | 0.00 | 30 | 1012.7 |
| 20260502224702 | 16 | 246 | 17.7 | 29.0 | 0.00 | 0.00 | 0.00 | 30 | 1013.0 |
| 20260502223703 | 16 | 271 | 19.3 | 32.2 | 0.00 | 0.00 | 0.00 | 30 | 1012.9 |
| 20260502223203 | 16 | 275 | 11.3 | 19.3 | 0.00 | 0.00 | 0.00 | 31 | 1012.9 |
| 20260502222703 | 16 | 249 | 11.3 | 22.5 | 0.00 | 0.00 | 0.00 | 30 | 1012.9 |
| 20260502222203 | 16 | 269 | 11.3 | 22.5 | 0.00 | 0.00 | 0.00 | 30 | 1013.0 |
| 20260502221702 | 16 | 273 | 12.9 | 32.2 | 0.00 | 0.00 | 0.00 | 29 | 1013.0 |
| 20260502221202 | 16 | 258 | 16.1 | 32.2 | 0.00 | 0.00 | 0.00 | 31 | 1013.1 |
| 20260502220703 | 16 | 298 | 12.9 | 32.2 | 0.00 | 0.00 | 0.00 | 30 | 1013.1 |
| 20260502215703 | 16 | 277 | 14.5 | 29.0 | 0.00 | 0.00 | 0.00 | 30 | 1013.0 |
| 20260502215203 | 16 | 267 | 11.3 | 27.4 | 0.00 | 0.00 | 0.00 | 31 | 1013.2 |
| 20260502214703 | 16 | 297 | 14.5 | 25.7 | 0.00 | 0.00 | 0.00 | 31 | 1013.2 |
| 20260502213703 | 16 | 297 | 19.3 | 27.4 | 0.00 | 0.00 | 0.00 | 29 | 1013.4 |
| 20260502212703 | 16 | 248 | 8.0 | 24.1 | 0.00 | 0.00 | 0.00 | 28 | 1013.5 |
| 20260502212203 | 16 | 251 | 9.7 | 32.2 | 0.00 | 0.00 | 0.00 | 30 | 1013.6 |
| 20260502211703 | 16 | 242 | 14.5 | 32.2 | 0.00 | 0.00 | 0.00 | 31 | 1013.6 |
| 20260502210703 | 15 | 251 | 19.3 | 29.0 | 0.00 | 0.00 | 0.00 | 29 | 1013.6 |
| 20260502210203 | 15 | 240 | 3.2 | 24.1 | 0.00 | 0.00 | 0.00 | 28 | 1013.6 |
| 20260502205703 | 16 | 253 | 9.7 | 27.4 | 0.00 | 0.00 | 0.00 | 31 | 1013.8 |
| 20260502205202 | 15 | 254 | 14.5 | 32.2 | 0.00 | 0.00 | 0.00 | 29 | 1013.8 |
| 20260502204703 | 15 | 265 | 19.3 | 32.2 | 0.00 | 0.00 | 0.00 | 31 | 1013.9 |
| 20260502204202 | 15 | 267 | 14.5 | 32.2 | 0.00 | 0.00 | 0.00 | 31 | 1014.0 |
| 20260502203703 | 15 | 220 | 14.5 | 32.2 | 0.00 | 0.00 | 0.00 | 32 | 1014.0 |
| 20260502202703 | 15 | 293 | 9.7 | 24.1 | 0.00 | 0.00 | 0.00 | 30 | 1014.3 |
| 20260502201702 | 15 | 268 | 14.5 | 24.1 | 0.00 | 0.00 | 0.00 | 31 | 1014.4 |
| 20260502201203 | 15 | 321 | 12.9 | 25.7 | 0.00 | 0.00 | 0.00 | 31 | 1014.2 |
| 20260502200704 | 15 | 257 | 16.1 | 32.2 | 0.00 | 0.00 | 0.00 | 29 | 1014.4 |
| 20260502200203 | 15 | 210 | 17.7 | 32.2 | 0.00 | 0.00 | 0.00 | 31 | 1014.4 |
| 20260502195703 | 15 | 245 | 9.7 | 27.4 | 0.00 | 0.00 | 0.00 | 30 | 1014.4 |
| 20260502194703 | 15 | 286 | 9.7 | 19.3 | 0.00 | 0.00 | 0.00 | 30 | 1014.5 |
| 20260502193703 | 16 | 309 | 14.5 | 27.4 | 0.00 | 0.00 | 0.00 | 32 | 1014.9 |
| 20260502193203 | 16 | 209 | 11.3 | 25.7 | 0.00 | 0.00 | 0.00 | 33 | 1014.8 |
| 20260502192703 | 15 | 232 | 16.1 | 25.7 | 0.00 | 0.00 | 0.00 | 32 | 1014.9 |
| 20260502192203 | 15 | 305 | 6.4 | 22.5 | 0.00 | 0.00 | 0.00 | 35 | 1015.1 |
| 20260502191702 | 15 | 329 | 12.9 | 29.0 | 0.00 | 0.00 | 0.00 | 32 | 1015.0 |
| 20260502191203 | 14 | 337 | 14.5 | 29.0 | 0.00 | 0.00 | 0.00 | 32 | 1015.1 |
| 20260502190703 | 15 | 283 | 14.5 | 27.4 | 0.00 | 0.00 | 0.00 | 32 | 1015.2 |
| 20260502190203 | 15 | 256 | 14.5 | 25.7 | 0.00 | 0.00 | 0.00 | 33 | 1015.2 |
| 20260502185703 | 15 | 297 | 16.1 | 25.7 | 0.00 | 0.00 | 0.00 | 31 | 1015.2 |
| 20260502185205 | 14 | 302 | 16.1 | 25.7 | 0.00 | 0.00 | 0.00 | 31 | 1015.4 |
| 20260502184703 | 15 | 252 | 11.3 | 32.2 | 0.00 | 0.00 | 0.00 | 32 | 1015.5 |
| 20260502184204 | 14 | 308 | 17.7 | 32.2 | 0.00 | 0.00 | 0.00 | 32 | 1015.5 |
| 20260502183703 | 14 | 280 | 17.7 | 27.4 | 0.00 | 0.00 | 0.00 | 31 | 1015.7 |
| 20260502183203 | 14 | 273 | 14.5 | 27.4 | 0.00 | 0.00 | 0.00 | 31 | 1015.6 |
| 20260502182703 | 14 | 272 | 19.3 | 27.4 | 0.00 | 0.00 | 0.00 | 29 | 1015.8 |
| 20260502182203 | 14 | 287 | 11.3 | 25.7 | 0.00 | 0.00 | 0.00 | 31 | 1015.9 |
| 20260502181203 | 14 | 315 | 9.7 | 24.1 | 0.00 | 0.00 | 0.00 | 33 | 1016.0 |
| 20260502180704 | 13 | 311 | 9.7 | 22.5 | 0.00 | 0.00 | 0.00 | 34 | 1016.1 |
| 20260502180203 | 13 | 260 | 11.3 | 32.2 | 0.00 | 0.00 | 0.00 | 31 | 1016.1 |
| 20260502170204 | 12 | 250 | 14.5 | 22.5 | 0.00 | 0.00 | 0.00 | 35 | 1016.9 |
| 20260502164203 | 12 | 269 | 11.3 | 19.3 | 0.00 | 0.00 | 0.00 | 34 | 1017.1 |
| 20260502163704 | 12 | 252 | 8.0 | 19.3 | 0.00 | 0.00 | 0.00 | 36 | 1017.2 |
| 20260502163203 | 12 | 307 | 4.8 | 22.5 | 0.00 | 0.00 | 0.00 | 38 | 1017.3 |
| 20260502162703 | 12 | 252 | 9.7 | 22.5 | 0.00 | 0.00 | 0.00 | 36 | 1017.4 |
| 20260502162203 | 12 | 284 | 12.9 | 25.7 | 0.00 | 0.00 | 0.00 | 36 | 1017.4 |
| 20260502161703 | 12 | 289 | 16.1 | 25.7 | 0.00 | 0.00 | 0.00 | 35 | 1017.5 |
| 20260502161203 | 12 | 295 | 8.0 | 16.1 | 0.00 | 0.00 | 0.00 | 35 | 1017.5 |
| 20260502152203 | 11 | 192 | 9.7 | 19.3 | 0.00 | 0.00 | 0.00 | 41 | 1017.9 |
| 20260502151703 | 11 | 255 | 3.2 | 14.5 | 0.00 | 0.00 | 0.00 | 41 | 1018.0 |
| 20260502151203 | 11 | 257 | 4.8 | 11.3 | 0.00 | 0.00 | 0.00 | 39 | 1017.9 |
| 20260502150703 | 11 | 239 | 4.8 | 14.5 | 0.00 | 0.00 | 0.00 | 40 | 1018.0 |
| 20260502150203 | 11 | 274 | 8.0 | 16.1 | 0.00 | 0.00 | 0.00 | 41 | 1018.0 |
| 20260502123703 | 2 | 219 | 1.6 | 4.8 | 0.00 | 0.00 | 0.00 | 80 | 1019.1 |
| 20260502123203 | 2 | 213 | 1.6 | 4.8 | 0.00 | 0.00 | 0.00 | 81 | 1019.0 |
| 20260502122704 | 1 | 213 | 3.2 | 4.8 | 0.00 | 0.00 | 0.00 | 82 | 1019.1 |
| 20260502122204 | 1 | 209 | 3.2 | 4.8 | 0.00 | 0.00 | 0.00 | 84 | 1019.1 |
| 20260502121203 | 0 | 192 | 3.2 | 4.8 | 0.00 | 0.00 | 0.00 | 86 | 1019.2 |
| 20260502120203 | 0 | 188 | 3.2 | 4.8 | 0.00 | 0.00 | 0.00 | 87 | 1019.1 |
| 20260502115703 | 0 | 183 | 3.2 | 4.8 | 0.00 | 0.00 | 0.00 | 87 | 1019.1 |
| 20260502115203 | 0 | 200 | 3.2 | 4.8 | 0.00 | 0.00 | 0.00 | 87 | 1019.1 |
| 20260502114703 | -1 | 200 | 4.8 | 4.8 | 0.00 | 0.00 | 0.00 | 88 | 1019.0 |
| 20260502114203 | -1 | 130 | 0.0 | 4.8 | 0.00 | 0.00 | 0.00 | 87 | 1019.0 |
| 20260502113703 | -1 | 116 | 0.0 | 0.0 | 0.00 | 0.00 | 0.00 | 87 | 1018.8 |
| 20260502113203 | -1 | 116 | 0.0 | 1.6 | 0.00 | 0.00 | 0.00 | 87 | 1018.8 |
| 20260502112704 | -1 | 116 | 0.0 | 3.2 | 0.00 | 0.00 | 0.00 | 87 | 1018.8 |
| 20260502112203 | -1 | 116 | 1.6 | 3.2 | 0.00 | 0.00 | 0.00 | 87 | 1018.7 |
| 20260502111703 | -1 | 116 | 1.6 | 3.2 | 0.00 | 0.00 | 0.00 | 87 | 1018.8 |
| 20260502111203 | -1 | 116 | 1.6 | 3.2 | 0.00 | 0.00 | 0.00 | 86 | 1018.8 |
| 20260502110702 | -1 | 116 | 0.0 | 1.6 | 0.00 | 0.00 | 0.00 | 86 | 1018.9 |
| 20260502110204 | -1 | 116 | 0.0 | 1.6 | 0.00 | 0.00 | 0.00 | 86 | 1018.8 |
| 20260502105703 | -1 | 116 | 0.0 | 0.0 | 0.00 | 0.00 | 0.00 | 86 | 1018.9 |
| 20260502104703 | -1 | 116 | 0.0 | 1.6 | 0.00 | 0.00 | 0.00 | 86 | 1018.9 |
| 20260502104203 | -1 | 116 | 0.0 | 3.2 | 0.00 | 0.00 | 0.00 | 86 | 1019.0 |
| 20260502103704 | -1 | 116 | 1.6 | 3.2 | 0.00 | 0.00 | 0.00 | 86 | 1019.0 |
| 20260502103203 | -1 | 116 | 1.6 | 3.2 | 0.00 | 0.00 | 0.00 | 86 | 1019.0 |
| 20260502102704 | -1 | 116 | 1.6 | 3.2 | 0.00 | 0.00 | 0.00 | 86 | 1019.0 |
| 20260502102203 | -1 | 116 | 0.0 | 1.6 | 0.00 | 0.00 | 0.00 | 85 | 1019.1 |
| 20260502100703 | -1 | 116 | 1.6 | 4.8 | 0.00 | 0.00 | 0.00 | 86 | 1019.0 |
| 20260502100203 | -1 | 116 | 1.6 | 3.2 | 0.00 | 0.00 | 0.00 | 86 | 1019.0 |
| 20260502091204 | -1 | 116 | 0.0 | 0.0 | 0.00 | 0.00 | 0.00 | 86 | 1018.9 |
| 20260502090703 | -1 | 116 | 0.0 | 0.0 | 0.00 | 0.00 | 0.00 | 86 | 1018.9 |